OBJECT G, 66001

Orbit data source: Space-Track

You're viewing an Uncataloged Satellite

Recently launched and/or uncataloged satellites may have evolving metadata. Metadata may include but not limited to: Owner, Maufacturer, Bus, Motor, and Mission.

OBJECT G, 66001 is a satellite owned by Zhongguo Xingwang (CN) in LEO that was launched on Thu, 16 Oct 2025 UTC via a CHANG ZHENG 8A launch vehicle from the Wenchang Satellite Launch Center (WSC). Unknown objects in Earth's orbit typically refer to objects detected orbiting the Earth but have not yet been identified or cataloged. These objects could be anything from previously untracked satellites, spent rocket stages, debris from satellite collisions, or even natural meteoroids temporarily captured by Earth's gravity.

Loading next visibility...
Identifier
66001, 2025-231G
Orbit
LEO
Country
Flag of CNCN / PRC
Related business
Manufacturer
CAST
Mission
Operational spacecraft
Bus & Motor
GUOWANG C, Unknown motor
Mass
~800 kg wet, ~800 kg dry
Launch date (UTC)
2025-10-16 (4 days ago)
Launch vehicle
CHANG ZHENG 8A
Launch site
Wenchang Satellite Launch Center (WSC)
Object type
Unknown
Shape & HBR
Unknown
Radar Cross Section
RCS unknown

Expand to show TLE details & history
Last TLE update: 2 days ago

TLE from 2 days ago
0 OBJECT G
1 66001U 25231G   25291.38408994 -.00000112  00000-0  24709-4 0  9991
2 66001  50.0040 348.3690 0006668 286.9969  73.0205 14.05922431   336
Epoch: 2025-10-18T09:13Z
TLE epoch observation values (Epoch: 2025-10-18T09:13:05.370Z)
Latitude
-0.00007°
Longitude
-177.01931°
Altitude
872.475 km
Speed
7.418 km/s
True Right ascension
23h 13m 28s
True Declination
0° 00' 00"
Sunlit
Object was in full shadow at epoch
Visualization orbit readout
Latitude
Unknown
Longitude
Unknown
Altitude
Unknown
Speed
Unknown
Apparent Right ascension
Unknown
Apparent Declination
Unknown
Sunlit
N/A
Visualization observer readout
Local Sidereal Time
00:33:19
Azimuth
Unknown
Elevation
Unknown
Doppler factor
Unknown
Orbital elements
Apogee altitude
878.926 km
Perigee altitude
869.254 km
Semi-major axis
7,252.227 km
Eccentricity
0.00067
Inclination
50.004°
RAAN
348.369°
Arg. of periapsis
286.9969°
True anomaly
73.0936°
Mean anomaly
73.0205°
Eccentric anomaly
73.05705°
Mean motion
3.51428 °/min
Orbital period
102.44 mins
BSTAR
0.000024709
Loading maneuver chart data...
Computing Atmospheric mass density...
Loading historical data...
Loading historical data...
Loading historical data...
Loading historical data...
Loading historical data...
Loading historical data...
Loading historical data...

Documentation

Showing up to 5 results
|